Time,TemperatureF,DewpointF,PressureIn,WindDirection,WindDirectionDegrees,WindSpeedMPH,WindSpeedGustMPH,Humidity,HourlyPrecipIn,Conditions,Clouds,dailyrainin,SoftwareType,DateUTC
2013-01-08 00:05:00,62.8,59.5,30.14,ENE,62,0.0,1.0,89,0.00,,,0.00,Wunderground v.1.15,2013-01-08 05:05:00,
2013-01-08 00:15:00,62.7,59.4,30.14,ENE,62,0.0,0.0,89,0.00,,,0.00,Wunderground v.1.15,2013-01-08 05:15:00,
2013-01-08 00:20:00,62.6,59.3,30.13,ENE,62,0.0,0.0,89,0.00,,,0.00,Wunderground v.1.15,2013-01-08 05:20:00,
2013-01-08 00:25:00,62.6,59.6,30.14,ENE,62,0.0,0.0,90,0.00,,,0.00,Wunderground v.1.15,2013-01-08 05:25:00,
2013-01-08 00:35:00,62.5,59.5,30.14,ENE,62,0.0,0.0,90,0.00,,,0.00,Wunderground v.1.15,2013-01-08 05:35:00,
2013-01-08 00:45:00,62.5,59.5,30.13,ENE,62,0.0,0.0,90,0.00,,,0.00,Wunderground v.1.15,2013-01-08 05:45:00,
2013-01-08 00:55:00,62.5,59.5,30.13,ENE,62,0.0,0.0,90,0.00,,,0.00,Wunderground v.1.15,2013-01-08 05:55:00,
2013-01-08 01:00:00,62.5,59.5,30.13,ENE,62,0.0,0.0,90,0.00,,,0.00,Wunderground v.1.15,2013-01-08 06:00:00,
2013-01-08 01:10:00,62.5,59.5,30.13,ENE,62,0.0,1.0,90,0.00,,,0.00,Wunderground v.1.15,2013-01-08 06:10:00,
2013-01-08 01:20:00,62.5,59.5,30.13,ENE,62,0.0,1.0,90,0.00,,,0.00,Wunderground v.1.15,2013-01-08 06:20:00,
2013-01-08 01:30:00,62.5,59.5,30.13,ENE,62,0.0,1.0,90,0.00,,,0.00,Wunderground v.1.15,2013-01-08 06:30:00,
2013-01-08 01:40:00,62.4,59.4,30.13,ENE,62,0.0,1.0,90,0.00,,,0.00,Wunderground v.1.15,2013-01-08 06:40:00,
2013-01-08 01:50:00,62.4,59.4,30.13,ENE,62,0.0,1.0,90,0.00,,,0.00,Wunderground v.1.15,2013-01-08 06:50:00,
2013-01-08 02:00:00,62.4,59.4,30.13,ENE,62,0.0,1.0,90,0.00,,,0.00,Wunderground v.1.15,2013-01-08 07:00:00,
2013-01-08 02:05:00,62.4,59.4,30.12,ENE,62,0.0,1.0,90,0.00,,,0.00,Wunderground v.1.15,2013-01-08 07:05:00,
2013-01-08 02:10:00,62.4,59.4,30.12,ENE,62,0.0,1.0,90,0.00,,,0.00,Wunderground v.1.15,2013-01-08 07:10:00,
2013-01-08 02:20:00,62.4,59.4,30.12,ENE,62,0.0,1.0,90,0.00,,,0.00,Wunderground v.1.15,2013-01-08 07:20:00,
2013-01-08 02:30:00,62.6,59.6,30.12,ENE,62,0.0,1.0,90,0.00,,,0.00,Wunderground v.1.15,2013-01-08 07:30:00,
2013-01-08 02:35:00,62.6,59.6,30.11,ENE,61,0.0,1.0,90,0.00,,,0.00,Wunderground v.1.15,2013-01-08 07:35:00,
2013-01-08 02:45:00,62.7,59.7,30.12,ENE,61,0.0,1.0,90,0.00,,,0.00,Wunderground v.1.15,2013-01-08 07:45:00,
2013-01-08 02:55:00,62.9,59.9,30.11,ENE,61,0.0,1.0,90,0.00,,,0.00,Wunderground v.1.15,2013-01-08 07:55:00,
2013-01-08 03:05:00,62.9,59.9,30.12,ENE,61,0.0,1.0,90,0.00,,,0.00,Wunderground v.1.15,2013-01-08 08:05:00,
2013-01-08 03:10:00,62.9,59.9,30.11,ENE,61,0.0,1.0,90,0.00,,,0.00,Wunderground v.1.15,2013-01-08 08:10:00,
2013-01-08 03:15:00,63.0,60.0,30.12,ENE,61,0.0,1.0,90,0.00,,,0.00,Wunderground v.1.15,2013-01-08 08:15:00,
2013-01-08 03:25:00,63.1,60.1,30.12,ENE,61,0.0,1.0,90,0.00,,,0.00,Wunderground v.1.15,2013-01-08 08:25:00,
2013-01-08 03:30:00,63.1,60.1,30.12,ENE,61,0.0,1.0,90,0.00,,,0.00,Wunderground v.1.15,2013-01-08 08:30:00,
2013-01-08 03:35:00,63.1,60.1,30.12,ENE,61,0.0,1.0,90,0.00,,,0.00,Wunderground v.1.15,2013-01-08 08:35:00,
2013-01-08 03:45:00,63.1,60.1,30.12,ENE,61,0.0,1.0,90,0.00,,,0.00,Wunderground v.1.15,2013-01-08 08:45:00,
2013-01-08 03:55:00,63.1,60.1,30.11,ENE,61,0.0,1.0,90,0.00,,,0.00,Wunderground v.1.15,2013-01-08 08:55:00,
2013-01-08 04:05:00,63.0,60.0,30.11,ENE,61,0.0,1.0,90,0.00,,,0.00,Wunderground v.1.15,2013-01-08 09:05:00,
2013-01-08 04:10:00,63.0,60.0,30.11,ENE,61,0.0,1.0,90,0.00,,,0.00,Wunderground v.1.15,2013-01-08 09:10:00,
2013-01-08 04:20:00,63.1,60.1,30.11,ENE,61,0.0,1.0,90,0.00,,,0.00,Wunderground v.1.15,2013-01-08 09:20:00,
2013-01-08 04:25:00,63.1,60.1,30.12,ENE,61,0.0,1.0,90,0.00,,,0.00,Wunderground v.1.15,2013-01-08 09:25:00,
2013-01-08 04:30:00,63.1,60.1,30.11,ENE,61,0.0,1.0,90,0.00,,,0.00,Wunderground v.1.15,2013-01-08 09:30:00,
2013-01-08 04:40:00,63.0,60.0,30.12,ENE,61,0.0,1.0,90,0.00,,,0.00,Wunderground v.1.15,2013-01-08 09:40:00,
2013-01-08 04:45:00,62.9,60.2,30.12,ENE,61,0.0,1.0,91,0.00,,,0.00,Wunderground v.1.15,2013-01-08 09:45:00,
2013-01-08 04:50:00,62.9,60.2,30.12,ENE,61,0.0,1.0,91,0.00,,,0.00,Wunderground v.1.15,2013-01-08 09:50:00,
2013-01-08 04:55:00,62.9,60.2,30.11,ENE,61,0.0,1.0,91,0.00,,,0.00,Wunderground v.1.15,2013-01-08 09:55:00,
2013-01-08 05:00:00,62.8,60.1,30.11,ENE,61,0.0,1.0,91,0.00,,,0.00,Wunderground v.1.15,2013-01-08 10:00:00,
2013-01-08 05:10:00,62.8,60.1,30.11,ENE,61,0.0,1.0,91,0.00,,,0.00,Wunderground v.1.15,2013-01-08 10:10:00,
2013-01-08 05:15:00,62.8,60.1,30.11,ENE,61,0.0,1.0,91,0.00,,,0.00,Wunderground v.1.15,2013-01-08 10:15:00,
2013-01-08 05:20:00,62.8,60.1,30.11,ENE,61,0.0,1.0,91,0.00,,,0.00,Wunderground v.1.15,2013-01-08 10:20:00,
2013-01-08 05:30:00,62.7,60.0,30.11,ENE,61,0.0,1.0,91,0.00,,,0.00,Wunderground v.1.15,2013-01-08 10:30:00,
2013-01-08 05:35:00,62.6,59.9,30.11,ENE,61,0.0,1.0,91,0.00,,,0.00,Wunderground v.1.15,2013-01-08 10:35:00,
2013-01-08 05:40:00,62.6,59.6,30.12,ENE,61,0.0,1.0,90,0.00,,,0.00,Wunderground v.1.15,2013-01-08 10:40:00,
2013-01-08 05:50:00,62.7,60.0,30.12,ENE,61,0.0,1.0,91,0.00,,,0.00,Wunderground v.1.15,2013-01-08 10:50:00,
2013-01-08 05:55:00,62.6,59.9,30.12,ENE,61,0.0,1.0,91,0.00,,,0.00,Wunderground v.1.15,2013-01-08 10:55:00,
2013-01-08 06:00:00,62.6,59.9,30.12,ENE,61,0.0,1.0,91,0.00,,,0.00,Wunderground v.1.15,2013-01-08 11:00:00,
2013-01-08 06:05:00,62.7,60.0,30.12,ENE,61,0.0,1.0,91,0.00,,,0.00,Wunderground v.1.15,2013-01-08 11:05:00,
2013-01-08 06:15:00,62.7,60.0,30.12,ENE,61,0.0,1.0,91,0.00,,,0.00,Wunderground v.1.15,2013-01-08 11:15:00,
2013-01-08 06:20:00,62.7,60.0,30.13,ENE,61,0.0,1.0,91,0.00,,,0.00,Wunderground v.1.15,2013-01-08 11:20:00,
2013-01-08 06:25:00,62.7,60.0,30.13,ENE,61,0.0,1.0,91,0.00,,,0.00,Wunderground v.1.15,2013-01-08 11:25:00,
2013-01-08 06:30:00,62.7,60.0,30.13,ENE,61,0.0,1.0,91,0.00,,,0.00,Wunderground v.1.15,2013-01-08 11:30:00,
2013-01-08 06:35:00,62.8,60.1,30.13,ENE,61,0.0,1.0,91,0.00,,,0.00,Wunderground v.1.15,2013-01-08 11:35:00,
2013-01-08 06:40:00,62.9,60.2,30.13,ENE,61,0.0,1.0,91,0.00,,,0.00,Wunderground v.1.15,2013-01-08 11:40:00,
2013-01-08 06:45:00,62.8,60.1,30.14,ENE,61,0.0,1.0,91,0.00,,,0.00,Wunderground v.1.15,2013-01-08 11:45:00,
2013-01-08 06:55:00,62.8,60.1,30.14,ENE,61,0.0,1.0,91,0.00,,,0.00,Wunderground v.1.15,2013-01-08 11:55:00,
2013-01-08 07:00:00,62.7,60.0,30.15,ENE,61,0.0,1.0,91,0.00,,,0.00,Wunderground v.1.15,2013-01-08 12:00:00,
2013-01-08 07:05:00,62.7,60.0,30.15,ENE,61,0.0,1.0,91,0.00,,,0.00,Wunderground v.1.15,2013-01-08 12:05:00,
2013-01-08 07:10:00,62.7,60.0,30.16,ENE,61,0.0,1.0,91,0.00,,,0.00,Wunderground v.1.15,2013-01-08 12:10:00,
2013-01-08 07:20:00,62.6,59.9,30.16,ENE,61,0.0,1.0,91,0.00,,,0.00,Wunderground v.1.15,2013-01-08 12:20:00,
2013-01-08 07:25:00,62.6,59.9,30.16,ENE,61,0.0,1.0,91,0.00,,,0.00,Wunderground v.1.15,2013-01-08 12:25:00,
2013-01-08 07:30:00,62.6,59.9,30.16,ENE,61,0.0,1.0,91,0.00,,,0.00,Wunderground v.1.15,2013-01-08 12:30:00,
2013-01-08 07:35:00,62.5,59.8,30.16,ENE,61,0.0,1.0,91,0.00,,,0.00,Wunderground v.1.15,2013-01-08 12:35:00,
2013-01-08 07:40:00,62.5,59.8,30.16,ENE,61,0.0,1.0,91,0.00,,,0.00,Wunderground v.1.15,2013-01-08 12:40:00,
2013-01-08 07:45:00,62.5,59.8,30.17,ENE,61,0.0,1.0,91,0.00,,,0.00,Wunderground v.1.15,2013-01-08 12:45:00,
2013-01-08 07:55:00,62.6,59.9,30.17,ENE,61,0.0,1.0,91,0.00,,,0.00,Wunderground v.1.15,2013-01-08 12:55:00,
2013-01-08 08:00:00,62.6,59.9,30.17,ENE,61,0.0,1.0,91,0.00,,,0.00,Wunderground v.1.15,2013-01-08 13:00:00,
2013-01-08 08:05:00,62.9,60.2,30.18,ENE,61,0.0,1.0,91,0.00,,,0.00,Wunderground v.1.15,2013-01-08 13:05:00,
2013-01-08 08:10:00,63.1,60.4,30.18,ENE,61,0.0,1.0,91,0.00,,,0.00,Wunderground v.1.15,2013-01-08 13:10:00,
2013-01-08 08:20:00,63.7,61.0,30.18,ENE,61,0.0,1.0,91,0.00,,,0.00,Wunderground v.1.15,2013-01-08 13:20:00,
2013-01-08 08:25:00,64.0,61.3,30.18,ENE,61,0.0,1.0,91,0.00,,,0.00,Wunderground v.1.15,2013-01-08 13:25:00,
2013-01-08 08:35:00,64.7,62.0,30.19,ENE,61,0.0,1.0,91,0.00,,,0.00,Wunderground v.1.15,2013-01-08 13:35:00,
2013-01-08 08:40:00,65.0,62.3,30.19,ENE,61,0.0,1.0,91,0.00,,,0.00,Wunderground v.1.15,2013-01-08 13:40:00,
2013-01-08 08:45:00,65.4,62.4,30.19,ENE,76,0.0,1.0,90,0.00,,,0.00,Wunderground v.1.15,2013-01-08 13:45:00,
2013-01-08 08:55:00,66.3,63.3,30.19,NE,38,1.0,2.0,90,0.00,,,0.00,Wunderground v.1.15,2013-01-08 13:55:00,
2013-01-08 09:00:00,66.9,63.9,30.19,ENE,62,0.0,4.0,90,0.00,,,0.00,Wunderground v.1.15,2013-01-08 14:00:00,
2013-01-08 09:05:00,67.4,64.4,30.19,ENE,61,0.0,4.0,90,0.00,,,0.00,Wunderground v.1.15,2013-01-08 14:05:00,
2013-01-08 09:10:00,67.8,64.4,30.19,ENE,69,1.0,1.0,89,0.00,,,0.00,Wunderground v.1.15,2013-01-08 14:10:00,
2013-01-08 09:15:00,68.2,64.8,30.19,NE,40,1.0,1.0,89,0.00,,,0.00,Wunderground v.1.15,2013-01-08 14:15:00,
2013-01-08 09:20:00,68.6,65.2,30.19,ENE,78,1.0,1.0,89,0.00,,,0.00,Wunderground v.1.15,2013-01-08 14:20:00,
2013-01-08 09:30:00,69.4,65.7,30.20,ENE,76,1.0,1.0,88,0.00,,,0.00,Wunderground v.1.15,2013-01-08 14:30:00,
2013-01-08 09:40:00,70.2,66.1,30.20,ENE,69,1.0,1.0,87,0.00,,,0.00,Wunderground v.1.15,2013-01-08 14:40:00,
2013-01-08 09:50:00,71.3,66.9,30.20,ENE,59,0.0,1.0,86,0.00,,,0.00,Wunderground v.1.15,2013-01-08 14:50:00,
2013-01-08 10:00:00,71.8,67.4,30.20,ENE,59,1.0,4.0,86,0.00,,,0.00,Wunderground v.1.15,2013-01-08 15:00:00,
2013-01-08 10:10:00,72.2,67.4,30.20,NE,51,2.0,2.0,85,0.00,,,0.00,Wunderground v.1.15,2013-01-08 15:10:00,
2013-01-08 10:20:00,73.1,68.3,30.20,East,87,1.0,1.0,85,0.00,,,0.00,Wunderground v.1.15,2013-01-08 15:20:00,
2013-01-08 10:30:00,74.0,68.9,30.20,NE,54,1.0,1.0,84,0.00,,,0.00,Wunderground v.1.15,2013-01-08 15:30:00,
2013-01-08 10:35:00,74.5,69.0,30.19,East,86,1.0,1.0,83,0.00,,,0.00,Wunderground v.1.15,2013-01-08 15:35:00,
2013-01-08 10:45:00,75.2,69.3,30.19,ENE,70,1.0,4.0,82,0.00,,,0.00,Wunderground v.1.15,2013-01-08 15:45:00,
2013-01-08 10:55:00,76.1,69.8,30.19,East,80,2.0,2.0,81,0.00,,,0.00,Wunderground v.1.15,2013-01-08 15:55:00,
2013-01-08 11:00:00,76.3,70.0,30.19,East,97,2.0,3.0,81,0.00,,,0.00,Wunderground v.1.15,2013-01-08 16:00:00,
2013-01-08 11:10:00,76.6,70.0,30.19,East,80,2.0,2.0,80,0.00,,,0.00,Wunderground v.1.15,2013-01-08 16:10:00,
2013-01-08 11:15:00,76.8,70.2,30.18,East,80,2.0,2.0,80,0.00,,,0.00,Wunderground v.1.15,2013-01-08 16:15:00,
2013-01-08 11:25:00,77.4,70.4,30.18,ENE,74,1.0,1.0,79,0.00,,,0.00,Wunderground v.1.15,2013-01-08 16:25:00,
2013-01-08 11:30:00,77.8,70.8,30.17,East,80,1.0,2.0,79,0.00,,,0.00,Wunderground v.1.15,2013-01-08 16:30:00,
2013-01-08 11:35:00,78.5,70.7,30.18,East,80,1.0,2.0,77,0.00,,,0.00,Wunderground v.1.15,2013-01-08 16:35:00,
2013-01-08 11:45:00,79.3,70.7,30.17,ESE,123,1.0,3.0,75,0.00,,,0.00,Wunderground v.1.15,2013-01-08 16:45:00,
2013-01-08 11:50:00,79.3,70.3,30.17,East,80,1.0,2.0,74,0.00,,,0.00,Wunderground v.1.15,2013-01-08 16:50:00,
2013-01-08 12:00:00,79.2,70.2,30.16,ENE,57,1.0,1.0,74,0.00,,,0.00,Wunderground v.1.15,2013-01-08 17:00:00,
2013-01-08 12:05:00,79.3,69.9,30.16,NE,39,2.0,2.0,73,0.00,,,0.00,Wunderground v.1.15,2013-01-08 17:05:00,
2013-01-08 12:10:00,79.7,69.9,30.15,ENE,74,1.0,1.0,72,0.00,,,0.00,Wunderground v.1.15,2013-01-08 17:10:00,
2013-01-08 12:20:00,80.2,69.9,30.15,ESE,119,2.0,3.0,71,0.00,,,0.00,Wunderground v.1.15,2013-01-08 17:20:00,
2013-01-08 12:30:00,80.6,70.3,30.14,SE,143,2.0,4.0,71,0.00,,,0.00,Wunderground v.1.15,2013-01-08 17:30:00,
2013-01-08 12:35:00,80.7,69.6,30.14,East,86,2.0,4.0,69,0.00,,,0.00,Wunderground v.1.15,2013-01-08 17:35:00,
2013-01-08 12:45:00,80.9,70.2,30.14,ESE,117,3.0,6.0,70,0.00,,,0.00,Wunderground v.1.15,2013-01-08 17:45:00,
2013-01-08 12:50:00,81.1,70.0,30.13,SE,133,3.0,5.0,69,0.00,,,0.00,Wunderground v.1.15,2013-01-08 17:50:00,
2013-01-08 13:00:00,80.7,69.2,30.13,ENE,57,2.0,3.0,68,0.00,,,0.00,Wunderground v.1.15,2013-01-08 18:00:00,
2013-01-08 13:05:00,80.7,69.6,30.13,ESE,119,2.0,3.0,69,0.00,,,0.00,Wunderground v.1.15,2013-01-08 18:05:00,
2013-01-08 13:15:00,81.4,69.4,30.13,ESE,106,2.0,2.0,67,0.00,,,0.00,Wunderground v.1.15,2013-01-08 18:15:00,
2013-01-08 13:25:00,82.1,70.5,30.13,ESE,116,2.0,3.0,68,0.00,,,0.00,Wunderground v.1.15,2013-01-08 18:25:00,
2013-01-08 13:35:00,82.2,69.3,30.13,SE,141,3.0,3.0,65,0.00,,,0.00,Wunderground v.1.15,2013-01-08 18:35:00,
2013-01-08 13:40:00,82.3,69.8,30.12,SE,145,2.0,2.0,66,0.00,,,0.00,Wunderground v.1.15,2013-01-08 18:40:00,
2013-01-08 13:50:00,82.4,69.0,30.12,East,94,2.0,2.0,64,0.00,,,0.00,Wunderground v.1.15,2013-01-08 18:50:00,
2013-01-08 14:00:00,82.2,69.3,30.11,East,97,2.0,2.0,65,0.00,,,0.00,Wunderground v.1.15,2013-01-08 19:00:00,
2013-01-08 14:10:00,82.7,68.8,30.11,NE,53,2.0,2.0,63,0.00,,,0.00,Wunderground v.1.15,2013-01-08 19:10:00,
2013-01-08 14:15:00,82.9,69.0,30.11,SE,137,2.0,2.0,63,0.00,,,0.00,Wunderground v.1.15,2013-01-08 19:15:00,
2013-01-08 14:25:00,82.9,69.0,30.11,ENE,78,2.0,3.0,63,0.00,,,0.00,Wunderground v.1.15,2013-01-08 19:25:00,
2013-01-08 14:35:00,82.9,69.0,30.10,SE,132,2.0,3.0,63,0.00,,,0.00,Wunderground v.1.15,2013-01-08 19:35:00,
2013-01-08 14:40:00,83.0,69.6,30.10,ENE,70,2.0,2.0,64,0.00,,,0.00,Wunderground v.1.15,2013-01-08 19:40:00,
2013-01-08 14:50:00,83.5,69.1,30.10,ENE,63,2.0,2.0,62,0.00,,,0.00,Wunderground v.1.15,2013-01-08 19:50:00,
2013-01-08 15:00:00,83.7,69.3,30.10,ESE,121,1.0,5.0,62,0.00,,,0.00,Wunderground v.1.15,2013-01-08 20:00:00,
2013-01-08 15:05:00,83.5,69.6,30.10,ESE,107,1.0,5.0,63,0.00,,,0.00,Wunderground v.1.15,2013-01-08 20:05:00,
2013-01-08 15:15:00,83.4,69.0,30.10,SE,135,2.0,3.0,62,0.00,,,0.00,Wunderground v.1.15,2013-01-08 20:15:00,
2013-01-08 15:25:00,82.9,69.5,30.10,ESE,109,1.0,2.0,64,0.00,,,0.00,Wunderground v.1.15,2013-01-08 20:25:00,
2013-01-08 15:35:00,82.6,70.1,30.10,South,172,2.0,4.0,66,0.00,,,0.00,Wunderground v.1.15,2013-01-08 20:35:00,
2013-01-08 15:40:00,81.4,70.2,30.10,SW,234,3.0,4.0,69,0.00,,,0.00,Wunderground v.1.15,2013-01-08 20:40:00,
2013-01-08 15:50:00,81.2,70.5,30.10,SW,221,3.0,3.0,70,0.00,,,0.00,Wunderground v.1.15,2013-01-08 20:50:00,
2013-01-08 15:55:00,81.0,70.3,30.10,SW,232,3.0,6.0,70,0.00,,,0.00,Wunderground v.1.15,2013-01-08 20:55:00,
2013-01-08 16:05:00,81.1,70.4,30.10,SW,225,3.0,3.0,70,0.00,,,0.00,Wunderground v.1.15,2013-01-08 21:05:00,
2013-01-08 16:10:00,81.3,70.6,30.11,SW,235,2.0,2.0,70,0.00,,,0.00,Wunderground v.1.15,2013-01-08 21:10:00,
2013-01-08 16:15:00,81.4,70.7,30.11,South,190,1.0,2.0,70,0.00,,,0.00,Wunderground v.1.15,2013-01-08 21:15:00,
2013-01-08 16:20:00,81.2,70.1,30.11,SW,230,2.0,2.0,69,0.00,,,0.00,Wunderground v.1.15,2013-01-08 21:20:00,
2013-01-08 16:30:00,80.8,69.7,30.11,SW,218,2.0,2.0,69,0.00,,,0.00,Wunderground v.1.15,2013-01-08 21:30:00,
2013-01-08 16:35:00,80.2,69.5,30.11,SW,219,2.0,2.0,70,0.00,,,0.00,Wunderground v.1.15,2013-01-08 21:35:00,
2013-01-08 16:40:00,79.9,69.7,30.10,SW,225,2.0,2.0,71,0.00,,,0.00,Wunderground v.1.15,2013-01-08 21:40:00,
2013-01-08 16:45:00,79.5,69.7,30.10,SW,222,1.0,2.0,72,0.00,,,0.00,Wunderground v.1.15,2013-01-08 21:45:00,
2013-01-08 16:50:00,79.6,69.8,30.11,SW,223,1.0,1.0,72,0.00,,,0.00,Wunderground v.1.15,2013-01-08 21:50:00,
2013-01-08 16:55:00,79.5,69.3,30.11,SW,228,1.0,1.0,71,0.00,,,0.00,Wunderground v.1.15,2013-01-08 21:55:00,
2013-01-08 17:05:00,78.8,69.0,30.11,WSW,239,0.0,1.0,72,0.00,,,0.00,Wunderground v.1.15,2013-01-08 22:05:00,
2013-01-08 17:10:00,78.5,69.1,30.11,WSW,239,0.0,1.0,73,0.00,,,0.00,Wunderground v.1.15,2013-01-08 22:10:00,
2013-01-08 17:15:00,78.4,69.0,30.11,WSW,239,0.0,1.0,73,0.00,,,0.00,Wunderground v.1.15,2013-01-08 22:15:00,
2013-01-08 17:20:00,78.3,69.3,30.11,WSW,239,0.0,1.0,74,0.00,,,0.00,Wunderground v.1.15,2013-01-08 22:20:00,
2013-01-08 17:25:00,78.2,68.8,30.12,WSW,239,0.0,1.0,73,0.00,,,0.00,Wunderground v.1.15,2013-01-08 22:25:00,
2013-01-08 17:35:00,78.0,68.6,30.12,WSW,239,0.0,1.0,73,0.00,,,0.00,Wunderground v.1.15,2013-01-08 22:35:00,
2013-01-08 17:40:00,77.8,68.4,30.12,WSW,239,0.0,1.0,73,0.00,,,0.00,Wunderground v.1.15,2013-01-08 22:40:00,
2013-01-08 17:45:00,77.6,68.7,30.12,WSW,239,0.0,1.0,74,0.00,,,0.00,Wunderground v.1.15,2013-01-08 22:45:00,
2013-01-08 17:50:00,77.5,68.6,30.11,WSW,239,0.0,1.0,74,0.00,,,0.00,Wunderground v.1.15,2013-01-08 22:50:00,
2013-01-08 17:55:00,77.4,68.5,30.11,WSW,239,0.0,1.0,74,0.00,,,0.00,Wunderground v.1.15,2013-01-08 22:55:00,
2013-01-08 18:05:00,77.0,68.5,30.11,WSW,239,0.0,1.0,75,0.00,,,0.00,Wunderground v.1.15,2013-01-08 23:05:00,
2013-01-08 18:15:00,76.7,68.6,30.12,WSW,239,0.0,1.0,76,0.00,,,0.00,Wunderground v.1.15,2013-01-08 23:15:00,
2013-01-08 18:20:00,76.6,68.5,30.12,WSW,239,0.0,1.0,76,0.00,,,0.00,Wunderground v.1.15,2013-01-08 23:20:00,
2013-01-08 18:25:00,76.5,68.4,30.12,WSW,239,0.0,1.0,76,0.00,,,0.00,Wunderground v.1.15,2013-01-08 23:25:00,
2013-01-08 18:35:00,76.3,68.6,30.12,WSW,239,0.0,1.0,77,0.00,,,0.00,Wunderground v.1.15,2013-01-08 23:35:00,
2013-01-08 18:40:00,76.1,68.0,30.12,WSW,239,0.0,1.0,76,0.00,,,0.00,Wunderground v.1.15,2013-01-08 23:40:00,
2013-01-08 18:50:00,75.9,68.2,30.12,WSW,239,0.0,1.0,77,0.00,,,0.00,Wunderground v.1.15,2013-01-08 23:50:00,
2013-01-08 18:55:00,75.7,68.4,30.12,WSW,239,0.0,1.0,78,0.00,,,0.00,Wunderground v.1.15,2013-01-08 23:55:00,
2013-01-08 19:00:00,75.5,68.2,30.12,WSW,239,0.0,1.0,78,0.00,,,0.00,Wunderground v.1.15,2013-01-09 00:00:00,
2013-01-08 19:05:00,75.3,68.0,30.12,WSW,239,0.0,1.0,78,0.00,,,0.00,Wunderground v.1.15,2013-01-09 00:05:00,
2013-01-08 19:10:00,75.0,68.0,30.13,WSW,239,0.0,1.0,79,0.00,,,0.00,Wunderground v.1.15,2013-01-09 00:10:00,
2013-01-08 19:20:00,74.5,67.9,30.12,WSW,239,0.0,1.0,80,0.00,,,0.00,Wunderground v.1.15,2013-01-09 00:20:00,
2013-01-08 19:25:00,74.3,67.7,30.12,WSW,239,0.0,1.0,80,0.00,,,0.00,Wunderground v.1.15,2013-01-09 00:25:00,
2013-01-08 19:30:00,74.1,67.9,30.13,WSW,239,0.0,1.0,81,0.00,,,0.00,Wunderground v.1.15,2013-01-09 00:30:00,
2013-01-08 19:35:00,73.9,67.7,30.13,WSW,239,0.0,1.0,81,0.00,,,0.00,Wunderground v.1.15,2013-01-09 00:35:00,
2013-01-08 19:40:00,73.7,67.5,30.12,WSW,239,0.0,1.0,81,0.00,,,0.00,Wunderground v.1.15,2013-01-09 00:40:00,
2013-01-08 19:45:00,73.6,67.8,30.13,WSW,239,0.0,1.0,82,0.00,,,0.00,Wunderground v.1.15,2013-01-09 00:45:00,
2013-01-08 19:55:00,74.0,68.2,30.13,East,85,0.0,1.0,82,0.00,,,0.00,Wunderground v.1.15,2013-01-09 00:55:00,
2013-01-08 20:00:00,74.3,68.1,30.12,East,85,0.0,1.0,81,0.00,,,0.00,Wunderground v.1.15,2013-01-09 01:00:00,
2013-01-08 20:05:00,74.5,68.3,30.13,East,85,0.0,1.0,81,0.00,,,0.00,Wunderground v.1.15,2013-01-09 01:05:00,
2013-01-08 20:10:00,74.5,68.3,30.13,East,85,0.0,1.0,81,0.00,,,0.00,Wunderground v.1.15,2013-01-09 01:10:00,
2013-01-08 20:15:00,74.5,68.3,30.13,East,85,0.0,1.0,81,0.00,,,0.00,Wunderground v.1.15,2013-01-09 01:15:00,
2013-01-08 20:20:00,74.5,68.3,30.13,East,85,0.0,1.0,81,0.00,,,0.00,Wunderground v.1.15,2013-01-09 01:20:00,
2013-01-08 20:25:00,74.5,67.9,30.13,East,81,0.0,1.0,80,0.00,,,0.00,Wunderground v.1.15,2013-01-09 01:25:00,
2013-01-08 20:30:00,74.3,67.7,30.13,East,81,0.0,1.0,80,0.00,,,0.00,Wunderground v.1.15,2013-01-09 01:30:00,
2013-01-08 20:35:00,74.3,68.1,30.13,East,81,0.0,1.0,81,0.00,,,0.00,Wunderground v.1.15,2013-01-09 01:35:00,
2013-01-08 20:40:00,74.1,67.9,30.13,East,80,0.0,1.0,81,0.00,,,0.00,Wunderground v.1.15,2013-01-09 01:40:00,
2013-01-08 20:45:00,74.0,67.8,30.14,East,80,0.0,1.0,81,0.00,,,0.00,Wunderground v.1.15,2013-01-09 01:45:00,
2013-01-08 20:50:00,73.9,67.7,30.13,East,80,0.0,1.0,81,0.00,,,0.00,Wunderground v.1.15,2013-01-09 01:50:00,
2013-01-08 21:00:00,73.7,67.9,30.13,ENE,78,0.0,1.0,82,0.00,,,0.00,Wunderground v.1.15,2013-01-09 02:00:00,
2013-01-08 21:05:00,73.6,67.8,30.13,ENE,77,0.0,3.0,82,0.00,,,0.00,Wunderground v.1.15,2013-01-09 02:05:00,
2013-01-08 21:10:00,73.6,67.8,30.13,ENE,69,1.0,1.0,82,0.00,,,0.00,Wunderground v.1.15,2013-01-09 02:10:00,
2013-01-08 21:15:00,73.5,67.7,30.13,ENE,69,1.0,1.0,82,0.00,,,0.00,Wunderground v.1.15,2013-01-09 02:15:00,
2013-01-08 21:20:00,73.4,67.6,30.14,ENE,69,1.0,1.0,82,0.00,,,0.00,Wunderground v.1.15,2013-01-09 02:20:00,
2013-01-08 21:30:00,73.3,67.8,30.14,ENE,66,0.0,1.0,83,0.00,,,0.00,Wunderground v.1.15,2013-01-09 02:30:00,
2013-01-08 21:35:00,73.3,67.8,30.14,ENE,66,0.0,1.0,83,0.00,,,0.00,Wunderground v.1.15,2013-01-09 02:35:00,
2013-01-08 21:40:00,73.3,67.8,30.14,ENE,78,0.0,1.0,83,0.00,,,0.00,Wunderground v.1.15,2013-01-09 02:40:00,
2013-01-08 21:45:00,73.4,67.9,30.14,ENE,65,0.0,1.0,83,0.00,,,0.00,Wunderground v.1.15,2013-01-09 02:45:00,
2013-01-08 21:50:00,73.4,67.9,30.14,ENE,65,0.0,1.0,83,0.00,,,0.00,Wunderground v.1.15,2013-01-09 02:50:00,
2013-01-08 21:55:00,73.5,68.0,30.14,ENE,65,0.0,1.0,83,0.00,,,0.00,Wunderground v.1.15,2013-01-09 02:55:00,
2013-01-08 22:00:00,73.5,68.0,30.15,ENE,62,0.0,1.0,83,0.00,,,0.00,Wunderground v.1.15,2013-01-09 03:00:00,
2013-01-08 22:05:00,73.6,68.1,30.15,ENE,76,1.0,1.0,83,0.00,,,0.00,Wunderground v.1.15,2013-01-09 03:05:00,
2013-01-08 22:10:00,73.7,68.2,30.15,ENE,67,1.0,1.0,83,0.00,,,0.00,Wunderground v.1.15,2013-01-09 03:10:00,
2013-01-08 22:15:00,73.7,68.2,30.15,ENE,68,1.0,1.0,83,0.00,,,0.00,Wunderground v.1.15,2013-01-09 03:15:00,
2013-01-08 22:20:00,73.8,68.3,30.15,East,83,1.0,1.0,83,0.00,,,0.00,Wunderground v.1.15,2013-01-09 03:20:00,
2013-01-08 22:25:00,73.7,68.2,30.15,East,86,1.0,1.0,83,0.00,,,0.00,Wunderground v.1.15,2013-01-09 03:25:00,
2013-01-08 22:35:00,73.6,68.5,30.15,ENE,76,1.0,1.0,84,0.00,,,0.00,Wunderground v.1.15,2013-01-09 03:35:00,
2013-01-08 22:40:00,73.6,68.5,30.15,East,80,0.0,1.0,84,0.00,,,0.00,Wunderground v.1.15,2013-01-09 03:40:00,
2013-01-08 22:45:00,73.6,68.5,30.15,ENE,72,0.0,1.0,84,0.00,,,0.00,Wunderground v.1.15,2013-01-09 03:45:00,
2013-01-08 22:50:00,73.5,68.4,30.15,East,80,0.0,1.0,84,0.00,,,0.00,Wunderground v.1.15,2013-01-09 03:50:00,
2013-01-08 22:55:00,73.5,68.7,30.16,SE,124,0.0,1.0,85,0.00,,,0.00,Wunderground v.1.15,2013-01-09 03:55:00,
2013-01-08 23:00:00,73.5,68.7,30.16,East,84,1.0,1.0,85,0.00,,,0.00,Wunderground v.1.15,2013-01-09 04:00:00,
2013-01-08 23:10:00,73.4,68.6,30.15,East,93,0.0,1.0,85,0.00,,,0.00,Wunderground v.1.15,2013-01-09 04:10:00,
2013-01-08 23:15:00,73.5,68.7,30.16,East,87,0.0,2.0,85,0.00,,,0.00,Wunderground v.1.15,2013-01-09 04:15:00,
2013-01-08 23:25:00,73.5,68.7,30.16,East,95,0.0,1.0,85,0.00,,,0.00,Wunderground v.1.15,2013-01-09 04:25:00,
2013-01-08 23:35:00,73.5,69.1,30.16,ENE,78,1.0,1.0,86,0.00,,,0.00,Wunderground v.1.15,2013-01-09 04:35:00,
2013-01-08 23:40:00,73.5,69.1,30.16,ENE,78,0.0,1.0,86,0.00,,,0.00,Wunderground v.1.15,2013-01-09 04:40:00,
2013-01-08 23:50:00,73.5,69.1,30.16,East,86,0.0,1.0,86,0.00,,,0.00,Wunderground v.1.15,2013-01-09 04:50:00,